Museu de l'Esquerda





Hora UTC 13:15
Temperatura 35.3 ºC
Humitat 25.0 %
Pressió 1006.9 hPa
Pluja 0.0 mm
Velocitat vent 9.7 km/h
Direcció vent W

Dades diàries 2022-08-14



Hora UTC (hivern +1h; estiu +2h)
Temperatura (ºC) Humitat (%) Pressió (hPa) Velocitat vent (km/h) Precipitació (mm)
Hora UTC Aire Humitat Pressió Vel. Dir. Vel. Max Dir. Intent. màx 5 min.
00:05 20.3 72.0 1011.1 4.8 SW 4.8 0.0
00:10 20.4 72.0 1011.0 1.6 SW 4.8 0.0
00:15 20.5 74.0 1010.8 3.2 SW 3.2 0.0
00:20 20.3 74.0 1010.7 1.6 SW 3.2 0.0
00:25 20.0 74.0 1010.6 3.2 SW 4.8 0.0
00:30 19.8 73.0 1010.6 1.6 SW 4.8 0.0
00:35 19.7 73.0 1010.3 0.0 SW 3.2 0.0
00:40 19.7 75.0 1010.3 0.0 SW 1.6 0.0
00:45 19.6 75.0 1010.2 1.6 SW 3.2 0.0
00:50 19.4 75.0 1010.0 0.0 SW 3.2 0.0
00:55 19.2 77.0 1009.8 0.0 SW 3.2 0.0
01:00 19.2 78.0 1009.6 0.0 SW 3.2 0.0
01:05 18.9 79.0 1009.6 0.0 SW 3.2 0.0
01:10 18.9 80.0 1009.4 0.0 SW 0.0 0.0
01:15 18.8 80.0 1009.3 0.0 SW 0.0 0.0
01:20 18.6 79.0 1009.1 0.0 SW 0.0 0.0
01:25 18.5 79.0 1009.3 0.0 SW 0.0 0.0
01:30 18.4 78.0 1009.2 0.0 SW 0.0 0.0
01:35 18.5 79.0 1009.3 0.0 SW 1.6 0.0
01:40 18.4 78.0 1009.4 3.2 SW 3.2 0.0
01:45 18.3 79.0 1009.6 3.2 SW 6.4 0.0
01:50 18.4 80.0 1009.6 3.2 SSW 6.4 0.0
01:55 18.4 80.0 1009.5 3.2 SSW 4.8 0.0
02:00 18.6 80.0 1009.6 0.0 SSW 4.8 0.0
02:05 18.7 80.0 1009.6 3.2 SSW 4.8 0.0
02:10 18.7 79.0 1009.6 1.6 SSW 4.8 0.0
02:15 18.6 79.0 1009.7 1.6 ENE 4.8 0.0
02:20 18.4 79.0 1009.6 3.2 ENE 4.8 0.0
02:25 18.2 79.0 1009.4 1.6 ENE 4.8 0.0
02:30 18.1 80.0 1009.5 0.0 ENE 3.2 0.0
02:35 18.2 81.0 1009.4 0.0 ENE 3.2 0.0
02:40 18.1 81.0 1009.4 1.6 ENE 3.2 0.0
02:45 17.9 81.0 1009.3 0.0 ENE 3.2 0.0
02:50 17.8 81.0 1009.3 3.2 ENE 3.2 0.0
02:55 17.7 82.0 1009.3 1.6 SSE 4.8 0.0
03:00 17.7 82.0 1009.3 1.6 SSE 4.8 0.0
03:05 17.6 81.0 1009.3 0.0 SSE 4.8 0.0
03:10 17.5 82.0 1009.3 0.0 SSE 1.6 0.0
03:15 17.4 82.0 1009.3 0.0 SSE 3.2 0.0
03:20 17.3 83.0 1009.2 0.0 SSE 3.2 0.0
03:25 17.2 83.0 1009.4 0.0 SSE 4.8 0.0
03:30 17.1 84.0 1009.3 1.6 SSE 4.8 0.0
03:35 17.1 84.0 1009.3 0.0 SSE 4.8 0.0
03:40 17.1 83.0 1009.4 0.0 SSE 3.2 0.0
03:45 17.2 83.0 1009.5 0.0 SSE 0.0 0.0
03:50 17.2 84.0 1009.5 0.0 SSE 0.0 0.0
03:55 17.3 83.0 1009.6 0.0 SSE 0.0 0.0
04:00 17.3 83.0 1009.5 1.6 SSE 3.2 0.0
04:05 17.3 83.0 1009.4 0.0 SSE 3.2 0.0
04:10 17.2 83.0 1009.3 3.2 SSE 3.2 0.0
04:15 17.1 83.0 1009.3 0.0 SE 3.2 0.0
04:20 16.9 84.0 1009.3 0.0 SE 1.6 0.0
04:25 16.8 85.0 1009.2 0.0 SE 3.2 0.0
04:30 16.8 85.0 1009.2 0.0 SE 3.2 0.0
04:35 16.7 86.0 1009.2 1.6 SE 3.2 0.0
04:40 16.6 86.0 1009.1 1.6 SE 3.2 0.0
04:45 16.5 86.0 1009.1 1.6 SE 3.2 0.0
04:50 16.3 87.0 1009.0 3.2 SE 3.2 0.0
04:55 16.1 86.0 1009.1 0.0 SE 3.2 0.0
05:00 15.8 86.0 1009.0 0.0 SE 1.6 0.0
05:05 15.7 87.0 1009.4 3.2 SSW 4.8 0.0
05:10 15.6 88.0 1009.8 3.2 SW 11.3 0.0
05:15 15.7 88.0 1009.9 4.8 SW 9.7 0.0
05:20 15.9 88.0 1009.9 0.0 SSW 9.7 0.0
05:25 16.1 88.0 1009.8 1.6 SSW 3.2 0.0
05:30 16.2 88.0 1009.8 0.0 SSW 3.2 0.0
05:35 16.4 88.0 1009.9 0.0 SSW 3.2 0.0
05:40 16.5 87.0 1009.9 0.0 SSW 3.2 0.0
05:45 16.7 87.0 1009.8 1.6 SSW 3.2 0.0
05:50 16.9 86.0 1009.9 0.0 SSW 3.2 0.0
05:55 17.1 85.0 1010.0 0.0 SSW 1.6 0.0
05:55 17.1 85.0 1009.9 0.0 SSW 1.6 0.0
06:05 17.3 85.0 1009.7 1.6 SSW 3.2 0.0
06:10 17.3 85.0 1009.8 1.6 SSW 4.8 0.0
06:15 17.3 85.0 1009.7 0.0 ENE 6.4 0.0
06:20 17.2 85.0 1009.7 1.6 NE 6.4 0.0
06:25 17.2 85.0 1010.1 0.0 NE 4.8 0.0
06:30 17.3 85.0 1010.3 0.0 NE 0.0 0.0
06:35 17.6 85.0 1010.1 0.0 NE 0.0 0.0
06:40 18.3 84.0 1010.1 1.6 ESE 3.2 0.0
06:45 18.8 82.0 1009.9 1.6 ESE 3.2 0.0
06:50 19.2 80.0 1010.0 0.0 ESE 3.2 0.0
06:55 19.3 79.0 1010.2 1.6 ESE 3.2 0.0
07:00 20.0 79.0 1010.3 1.6 S 6.4 0.0
07:05 20.5 76.0 1009.8 0.0 ESE 6.4 0.0
07:10 20.4 74.0 1009.5 4.8 NE 4.8 0.0
07:15 20.2 76.0 1009.1 1.6 NE 8.0 0.0
07:20 20.1 76.0 1009.8 4.8 S 8.0 0.0
07:25 20.1 77.0 1008.5 8.0 NE 9.7 0.0
07:30 20.1 77.0 1008.5 11.3 S 11.3 0.0
07:35 20.1 76.0 1009.1 1.6 S 14.5 0.0
07:40 20.9 75.0 1009.1 0.0 S 11.3 0.0
07:45 22.4 71.0 1009.2 4.8 SSW 9.7 0.0
07:50 23.2 67.0 1009.2 4.8 SSW 9.7 0.0
07:55 23.9 66.0 1009.3 0.0 SSE 8.0 0.0
08:00 24.7 62.0 1009.2 3.2 N 6.4 0.0
08:05 24.9 59.0 1009.2 3.2 N 6.4 0.0
08:10 25.1 58.0 1009.3 0.0 N 4.8 0.0
08:15 25.4 59.0 1009.2 0.0 N 4.8 0.0
08:20 25.8 56.0 1009.1 3.2 N 6.4 0.0
08:25 25.9 54.0 1009.1 3.2 N 6.4 0.0
08:30 25.8 55.0 1009.1 3.2 N 6.4 0.0
08:35 26.2 53.0 1009.1 4.8 N 6.4 0.0
08:40 26.7 53.0 1009.0 0.0 N 6.4 0.0
08:45 26.9 52.0 1009.1 3.2 N 6.4 0.0
08:50 27.3 52.0 1009.1 4.8 N 6.4 0.0
08:55 27.4 51.0 1009.0 1.6 N 8.0 0.0
09:00 28.1 48.0 1009.0 3.2 N 8.0 0.0
09:05 28.1 48.0 1009.0 1.6 N 6.4 0.0
09:10 28.4 47.0 1008.9 1.6 N 6.4 0.0
09:15 28.9 47.0 1008.8 4.8 N 6.4 0.0
09:20 29.0 45.0 1008.8 1.6 N 6.4 0.0
09:25 29.1 46.0 1008.7 0.0 N 6.4 0.0
09:30 29.3 46.0 1008.6 3.2 N 4.8 0.0
09:35 29.6 46.0 1008.5 1.6 N 6.4 0.0
09:40 30.2 43.0 1008.5 1.6 N 6.4 0.0
09:45 30.4 42.0 1008.4 1.6 N 4.8 0.0
09:50 30.8 39.0 1008.5 0.0 N 4.8 0.0
09:55 31.2 40.0 1008.3 3.2 N 6.4 0.0
10:00 31.7 38.0 1008.3 1.6 N 9.7 0.0
10:05 32.3 38.0 1008.3 3.2 N 9.7 0.0
10:10 32.6 38.0 1008.2 6.4 N 16.1 0.0
10:15 32.9 33.0 1008.1 12.9 N 22.5 0.0
10:20 32.8 34.0 1008.2 1.6 N 22.5 0.0
10:25 32.9 33.0 1008.1 4.8 N 20.9 0.0
10:30 32.9 34.0 1008.1 17.7 N 20.9 0.0
10:35 33.3 34.0 1008.0 4.8 N 20.9 0.0
10:40 33.6 31.0 1008.0 9.7 N 22.5 0.0
10:45 33.9 32.0 1007.9 14.5 N 22.5 0.0
10:50 33.8 31.0 1007.9 20.9 N 27.4 0.0
10:55 33.3 31.0 1007.9 6.4 N 27.4 0.0
11:00 33.9 31.0 1007.9 17.7 N 24.1 0.0
11:05 33.7 29.0 1007.9 9.7 N 22.5 0.0
11:10 34.1 30.0 1007.8 14.5 N 22.5 0.0
11:15 34.2 28.0 1007.9 20.9 N 32.2 0.0
11:20 34.2 29.0 1007.8 6.4 N 32.2 0.0
11:25 34.2 31.0 1007.7 12.9 N 19.3 0.0
11:30 34.6 30.0 1007.8 3.2 N 22.5 0.0
11:35 34.4 30.0 1007.6 17.7 N 22.5 0.0
11:40 34.2 32.0 1007.8 8.0 N 20.9 0.0
11:45 35.3 30.0 1007.8 12.9 N 20.9 0.0
11:50 35.5 30.0 1007.7 12.9 N 22.5 0.0
11:55 35.6 29.0 1007.7 9.7 N 25.7 0.0
12:00 35.4 29.0 1007.6 8.0 N 25.7 0.0
12:05 35.2 27.0 1007.6 8.0 N 29.0 0.0
12:10 35.1 28.0 1007.6 12.9 N 25.7 0.0
12:15 35.2 25.0 1007.5 16.1 N 41.8 0.0
12:20 34.8 26.0 1007.5 16.1 N 41.8 0.0
12:25 34.3 27.0 1007.6 19.3 N 33.8 0.0
12:30 34.1 27.0 1007.5 14.5 N 33.8 0.0
12:35 34.3 27.0 1007.4 4.8 N 40.2 0.0
12:40 34.6 25.0 1007.3 9.7 W 40.2 0.0
12:45 35.2 26.0 1007.2 14.5 W 32.2 0.0
12:50 35.4 25.0 1007.1 20.9 WSW 29.0 0.0
12:55 35.1 24.0 1007.1 8.0 SSE 29.0 0.0
13:00 34.8 24.0 1006.9 6.4 WNW 38.6 0.0
13:05 34.6 25.0 1006.8 14.5 W 38.6 0.0
13:10 35.3 26.0 1006.9 8.0 SSW 27.4 0.0
13:15 35.3 25.0 1006.9 9.7 W 22.5 0.0
Màxima 35.6 88.0 1011.1 20.9 WSW 41.8 0.0
Mínima 15.6 24.0 1006.8
Total 0.0